Find STARLINK-37605

NORAD ID: 799501232 Int'l Des: 2026-161AD Constellation: starlink operational

現在のビュー

3D地球を読み込み中...

About STARLINK-37605

STARLINK-37605 (NORAD 799501232) is a starlink constellation satellite launched Jul 14, 2026

STARLINK-37605について

説明を読み込み中...

次回通過

Passes for default location (London). Set your location on the main map for personalized predictions.

高度履歴

Loading altitude history...

軌道要素

1 99999C 2026161AD 26195.70534721 .00569880 00000-0 544060-4 0 1957
2 99999 53.1640 325.2203 0009519 281.9019 170.3684 16.10694902 15
Epoch: Jul 14, 2026 • Age: 7 hours